Notices

What’s New in latest Release from January 14th 2021:

·       In Historical Hourly Data Report, users can switch between Local Standard Time (LST) and Universal Time Coordinates (UTC) time.

·       In Historical Hourly Data Report, we have an addition of a new column to display hourly precipitation data for the stations where the data are available, from 2001 onwards.

·       Expanded the Search Options of the Canadian Historical Weather Radar, users now able to select 24 hours (1 image every hour) image viewing duration.

Please note that the IDF dataset is available through this link: Intensity-Duration-Frequency (IDF) Files .

Hourly Data Report for January 05, 2021

FREDERICTON CDA CS
NEW BRUNSWICK
Current Station Operator: ECCC - MSC

45°55'13.000" N
66°36'32.010" W
35.10 m
8101605
71668
AFC

Download Data

Hourly Data (January 2021)
Hourly Data Report for January 5, 2021
TIME
LST
Temp Definition
°C
Dew Point Definition
°C
Rel Hum Definition
%
Precip. Amount Definition
mm

Wind Dir Definition
10's deg

Wind Spd Definition
km/h
Visibility Definition
km
Stn Press Definition
kPa
Hmdx Definition


Wind Chill Definition


Weather Definition


00:00 -1.6 LegendMM LegendMM 0.0 3 14   101.24   -6 LegendNANA
01:00 -1.6 LegendMM LegendMM 0.0 3 14   101.19   -6 LegendNANA
02:00 -1.7 LegendMM LegendMM 0.0 3 17   101.18   -7 LegendNANA
03:00 -1.6 LegendMM LegendMM 0.0 2 15   101.21   -6 LegendNANA
04:00 -1.7 LegendMM LegendMM 0.0 4 14   101.20   -6 LegendNANA
05:00 -1.7 LegendMM LegendMM 0.0 3 15   101.20   -7 LegendNANA
06:00 -1.6 LegendMM LegendMM 0.0 3 14   101.23   -6 LegendNANA
07:00 -1.7 LegendMM LegendMM 0.0 2 15   101.26   -7 LegendNANA
08:00 -1.6 LegendMM LegendMM 0.0 2 11   101.24   -5 LegendNANA
09:00 -1.4 LegendMM LegendMM 0.0 3 15   101.25   -6 LegendNANA
10:00 -1.2 LegendMM LegendMM 0.0 3 15   101.27   -6 LegendNANA
11:00 -0.8 LegendMM LegendMM 0.0 2 14   101.24   -5 LegendNANA
12:00 -0.2 LegendMM LegendMM 0.0 3 14   101.14   -4 LegendNANA
13:00 0.1 LegendMM LegendMM 0.0 3 16   101.08     LegendNANA
14:00 0.4 LegendMM LegendMM 0.0 3 18   101.03     LegendNANA
15:00 0.2 LegendMM LegendMM 0.0 4 17   101.01     LegendNANA
16:00 0.1 LegendMM LegendMM 0.0 4 16   101.02     LegendNANA
17:00 -0.2 LegendMM LegendMM 0.0 2 18   101.04   -5 LegendNANA
18:00 -0.4 LegendMM LegendMM 0.0 4 16   101.05   -5 LegendNANA
19:00 -0.6 LegendMM LegendMM 0.0 3 17   101.04   -6 LegendNANA
20:00 -0.6 LegendMM LegendMM 0.0 4 20   101.03   -6 LegendNANA
21:00 -1.0 LegendMM LegendMM 0.0 4 22   100.98   -7 LegendNANA
22:00 -1.6 LegendMM LegendMM 0.0 4 25   100.91   -8 LegendNANA
23:00 -2.1 LegendMM LegendMM 0.0 4 19   100.89   -8 LegendNANA

Notes on Data Quality.

Legend

  • E = Estimated
  • M = Missing
  • NA = Not Available*
  • [empty] = Indicates an unobserved value
Date modified: